This is the latest recevied weather packets stored in our database for station/object K2RMB. If no packets are shown the sender has not sent any weather packets the latest 10 day(s).
| Time | Temp. | Humidity | Pressure | Rain* | Wind** | Luminosity | Snow |
|---|---|---|---|---|---|---|---|
| 1777662934 | 13.33° C | 40% | 1010.8 hPa | 0 mm | - | 688 W/m² | - |
| 1777662632 | 13.89° C | 38% | 1010.8 hPa | 0 mm | - | 702 W/m² | - |
| 1777662327 | 13.33° C | 45% | 1011.1 hPa | 0 mm | - | 713 W/m² | - |
| 1777662023 | 12.78° C | 44% | 1011.1 hPa | 0 mm | - | 742 W/m² | - |
| 1777661719 | 12.78° C | 43% | 1011.1 hPa | 0 mm | - | 751 W/m² | - |
| 1777661416 | 12.22° C | 46% | 1010.8 hPa | 0 mm | - | 758 W/m² | - |
| 1777661112 | 12.78° C | 44% | 1011.1 hPa | 0 mm | - | 771 W/m² | - |
| 1777660812 | 12.78° C | 44% | 1011.1 hPa | 0 mm | - | 811 W/m² | - |
| 1777660509 | 12.78° C | 45% | 1011.1 hPa | 0 mm | - | 880 W/m² | - |
| 1777660206 | 12.22° C | 43% | 1011.5 hPa | 0 mm | - | 866 W/m² | - |
| 1777659903 | 12.22° C | 45% | 1011.5 hPa | 0 mm | - | 685 W/m² | - |
| 1777659599 | 12.22° C | 49% | 1011.1 hPa | 0 mm | - | 877 W/m² | - |
| 1777659297 | 11.67° C | 46% | 1011.5 hPa | 0 mm | - | 1022 W/m² | - |
| 1777658993 | 11.67° C | 46% | 1011.8 hPa | 0 mm | - | 435 W/m² | - |
| 1777658691 | 11.67° C | 53% | 1011.5 hPa | 0 mm | - | 380 W/m² | - |
| 1777658386 | 11.67° C | 48% | 1011.5 hPa | 0 mm | - | 351 W/m² | - |
| 1777658084 | 11.67° C | 48% | 1011.5 hPa | 0 mm | - | 537 W/m² | - |
| 1777657780 | 11.67° C | 48% | 1011.5 hPa | 0 mm | - | 412 W/m² | - |
| 1777657478 | 11.11° C | 49% | 1011.8 hPa | 0 mm | - | 232 W/m² | - |
| 1777657175 | 11.67° C | 45% | 1011.5 hPa | 0 mm | - | 329 W/m² | - |
| 1777656873 | 11.67° C | 44% | 1011.8 hPa | 0 mm | - | 288 W/m² | - |
| 1777656568 | 11.67° C | 51% | 1011.8 hPa | 0 mm | - | 564 W/m² | - |
| 1777656264 | 11.67° C | 47% | 1011.8 hPa | 0 mm | - | 264 W/m² | - |
| 1777655960 | 11.67° C | 49% | 1011.8 hPa | 0 mm | - | 1076 W/m² | - |
| 1777655656 | 11.67° C | 49% | 1011.5 hPa | 0 mm | - | 1000 W/m² | - |
* Rain latest hour (hover to see other rain measurements)
** Current wind speed in m/s (hover to see current wind gust speed)